[Iaude] MPEC M07: 2024 LS5 [a=0.70,e=0.47,i=33.3,H=26.1]

mpec at cfa.harvard.edu mpec at cfa.harvard.edu
Sun Jun 16 07:59:40 EDT 2024


M.P.E.C. 2024-M07                                 Issued 2024 June 16, 11:58 UT

     The Minor Planet Electronic Circulars contain information on unusual
         minor planets, routine data on comets and natural satellites,
         and occasional editorial announcements.  They are published
    on behalf of Division F of the International Astronomical Union by the
          Minor Planet Center, Smithsonian Astrophysical Observatory,
                          Cambridge, MA 02138, U.S.A.
			  
             Prepared using the Tamkin Foundation Computer Network

                              MPC at CFA.HARVARD.EDU
            URL https://www.minorplanetcenter.net/    ISSN 1523-6714

                                    2024 LS5                                    


Observations:
     K24L05S*1C2024 06 15.33447417 10 38.320+26 01 32.10               VEM007G96
     K24L05S 1C2024 06 15.34011417 10 14.660+26 04 46.50               VEM007G96
     K24L05S 1C2024 06 15.34575717 09 51.250+26 07 59.90         19.49GVEM007G96
     K24L05S 1C2024 06 15.35139517 09 27.920+26 11 11.20               VEM007G96
     K24L05S KC2024 06 15.36093417 08 48.721+26 16 32.99         19.47GVEM007I52
     K24L05S KC2024 06 15.36175417 08 45.330+26 17 00.49         19.36GVEM007I52
     K24L05S KC2024 06 15.36257117 08 41.982+26 17 28.07         19.23GVEM007I52
     K24L05S KC2024 06 15.36338617 08 38.623+26 17 55.25         19.37GVEM007I52
     K24L05S KC2024 06 15.41042117 05 27.949+26 43 38.06         19.15GVEM007I52
     K24L05S KC2024 06 15.41124617 05 24.641+26 44 04.60         19.15GVEM007I52
     K24L05S KC2024 06 15.41207017 05 21.361+26 44 30.84         19.40GVEM007I52
     K24L05S KC2024 06 15.41289117 05 18.103+26 44 57.19         20.11GVEM007I52
     K24L05S 0B2024 06 15.90848 16 36 40.810+30 33 52.42         19.7 VZEM007M49
     K24L05S 0B2024 06 15.92602 16 35 43.262+30 40 16.61         20.1 VZEM007M49
     K24L05S KC2024 06 16.16565116 24 07.790+31 54 56.38         20.43GVEM007I52
     K24L05S KC2024 06 16.16634716 24 05.778+31 55 09.30         20.77GVEM007I52
     K24L05S KC2024 06 16.16705116 24 03.755+31 55 22.55         20.55GVEM007I52
     K24L05S KC2024 06 16.16774316 24 01.681+31 55 34.61         19.99GVEM007I52
     K24L05S KC2024 06 16.17953216 23 19.35 +31 58 50.9          20.3 GVEM007H21
     K24L05S KC2024 06 16.18234916 23 11.16 +31 59 41.6          20.5 GVEM007H21
     K24L05S KC2024 06 16.18858516 22 59.26 +32 01 49.6          20.2 GXEM007858
     K24L05S KC2024 06 16.18939516 22 50.74 +32 01 47.5          20.8 GVEM007H21
     K24L05S KC2024 06 16.20017616 22 25.72 +32 05 18.6          19.7 GXEM007858
     K24L05S KC2024 06 16.20444016 22 13.41 +32 06 35.0          20.2 GXEM007858
     K24L05S KC2024 06 16.20817616 21 52.14 +32 07 01.7          20.7 GVEM007932
     K24L05S KC2024 06 16.25017216 19 53.35 +32 18 54.2          20.3 GVEM007932
     K24L05S KC2024 06 16.26507716 19 11.88 +32 22 58.1          20.7 GVEM007932

Observer details:
858 Tebbutt Observatory, Edgewood.  Observer F. B. Zoltowski.  0.51-m f/8.1
    Schmidt-Cassegrain + CCD.
932 John J. McCarthy Obs., New Milford.  Observer M. Robson.  0.43 -m f/6.8
    reflector+CCD.
G96 Mt. Lemmon Survey.  Observer D. Rankin.  Measurers T. Beuden, V. F.
    Carvajal, D. Fay, J. B. Fazekas, D. C. Fuls, A. R. Gibbs, A. D. Grauer, H.
    Groeller, J. K. Hogan, R. A. Kowalski, S. M. Larson, G. J. Leonard, D.
    Rankin, R. L. Seaman, F. C. Shelly, K. W. Wierzchos.  1.5-m reflector +
    10K CCD.
H21 Astronomical Research Observatory, Westfield.  Observer R. Holmes.
    Measurers T. Linder, R. Holmes, L. Horn.  0.76-m f/3.0 astrograph + CCD.
I52 Steward Observatory, Mt. Lemmon Station.  Observers J. K. Hogan, G. J.
    Leonard.  Measurers T. Beuden, V. F. Carvajal, D. Fay, J. B. Fazekas, D.
    C. Fuls, A. R. Gibbs, A. D. Grauer, H. Groeller, J. K. Hogan, R. A.
    Kowalski, S. M. Larson, G. J. Leonard, D. Rankin, R. L. Seaman, F. C.
    Shelly, K. W. Wierzchos.  1.0-m prime focus + CCD.
M49 IAS Remote Observatory, Hakos.  Observers D. Husar, M. Junius, L. Demetz,
    P. Ditz, R. Hellot, T. Steinbach, A. Karacali, T. Daiber.  Measurer D.
    Husar.  0.25-m f/4.5 reflector + CMO.

Orbital elements:
2024 LS5                                                 Earth MOID = 0.0119 AU
Epoch 2024 Mar. 31.0 TT = JDT 2460400.5                 Veres                   
M  41.01873              (2000.0)            P               Q                  
n   1.66677048     Peri.  186.54603     +0.03008458     -0.83799713             
a   0.7045073      Node   262.79491     +0.94016988     +0.20879816             
e   0.4671778      Incl.   33.31086     +0.33937518     -0.50414693             
P   0.59           H   26.12          G   0.15           U   6                  
Residuals in seconds of arc
240615 G96  0.5+  0.1+    240615 I52  0.4-  0.0     240616 H21  0.2-  0.0
240615 G96 (2.0-  0.6+)   240615 I52  0.2-  0.1-    240616 H21  0.2-  0.1-
240615 G96 (1.8-  0.9+)   240615 I52  0.0   0.0     240616 858  0.5-  0.4+
240615 G96 (1.8-  0.4+)   240615 M49  0.2+  0.5-    240616 H21  0.2+  0.5-
240615 I52  0.0   0.0     240615 M49  0.0   0.2+    240616 858  0.4-  0.3+
240615 I52  0.3-  0.1-    240616 I52  0.1+  0.0     240616 858  0.5-  0.5+
240615 I52  0.2-  0.1+    240616 I52  0.4+  0.0     240616 932  0.2+  0.6-
240615 I52  0.3-  0.1-    240616 I52  0.8+  0.1+    240616 932  0.4+  0.3+
240615 I52  0.3-  0.0     240616 I52  0.1+  0.7-    240616 932 (0.4+  1.1-)

Ephemeris:
2024 LS5                 a,e,i = 0.70, 0.47, 33                  q = 0.3754
Date    TT    R. A. (2000) Decl.     Delta      r    Elong.  Phase     V
2024 05 17    01 14 49.6 -40 35 05   0.2548  0.9470    68.3    97.3    26.5
...
2024 06 01    00 49 55.7 -40 40 01   0.1213  1.0039    81.8    91.3    24.8
...
2024 06 09    23 47 21.5 -38 10 19   0.04791 1.0220    96.9    80.4    22.4
...
2024 06 15    17 34 44.8 +22 21 30   0.02039 1.0301   134.3    44.9    19.4
2024 06 16    16 32 01.0 +31 01 42   0.02711 1.0310   123.4    55.4    20.4
2024 06 17    15 51 12.5 +35 03 28   0.03513 1.0317   115.9    62.3    21.1
...
2024 06 23    14 27 30.5 +39 46 41   0.08930 1.0335    98.7    76.4    23.6
...
2024 07 01    14 03 10.8 +40 14 51   0.1629  1.0287    89.7    81.2    25.1
...
2024 07 16    13 50 17.5 +40 14 33   0.2929  0.9970    77.9    85.4    26.4

M. P. C. Staff               (C) Copyright 2024 MPC           M.P.E.C. 2024-M07





More information about the Iaude mailing list